[[{"header":{"parameterUnit":"m.s-1","parameterCategory":1,"la1":30.2991,"la2":30.254,"lo1":-89.0895,"lo2":-89.0444,"dy":0.0017,"dx":0.0017,"nx":28,"ny":28,"refTime":"2024-08-02T09:00:00:Z","depth":0,"parameterNumber":2,"parameterNumberName":"U-component_of_WINDS"},"data":[0,0,0,0,0,0,0,0,0,0,0,0,0,0,0,0,0,0,0,0,0,0,0,0,0,0,0,0,0,0,0,0,0,0,0,0,0,0,0,0,0,0,0,0,0,0,0,0,0,0,0,0,0,0,0,0,0,0,2.9626,2.9627,0,2.969,2.9691,2.9691,2.9623,2.962,2.9618,2.9615,2.9682,2.9686,2.969,0,0,0,0,0,0,0,0,0,0,0,0,0,2.9444,2.9448,2.9626,2.9627,2.9628,2.969,2.9691,2.9691,2.9624,2.962,2.9617,2.9614,2.968,2.9685,2.969,0,0,0,0,0,0,0,0,0,0,0,0,0,2.9517,2.9449,2.9626,2.9601,2.96,2.969,2.9691,2.9692,2.9624,2.962,2.9616,2.9613,2.9679,2.9685,2.9691,2.9809,0,0,2.971,2.9713,0,0,0,0,0,0,0,0,2.9513,2.9524,2.9604,2.9603,2.9601,2.9644,2.9651,2.9731,2.9625,2.9615,2.9615,2.9611,2.9673,2.9679,2.97,2.9812,2.9815,2.9711,2.9715,2.9717,2.9719,0,0,0,0,0,0,0,2.9508,2.9521,2.9651,2.9605,2.9604,2.9586,2.9593,2.9666,2.9665,2.9615,2.9611,2.9619,2.9671,2.9694,2.9701,2.9816,2.9711,2.9716,2.972,2.9723,3.0024,3.0028,0,0,0,0,0,0,2.9506,2.9517,2.9649,2.9653,2.9547,2.9593,2.96,2.9635,2.9664,2.9665,2.9622,2.9616,2.9685,2.9694,2.9703,2.984,2.9717,2.9723,2.9727,3.002,3.0025,3.003,0,0,0,0,0,0,2.9502,2.9518,2.9647,2.9584,2.9599,2.96,2.964,2.9638,2.9661,2.9669,2.9669,2.9646,2.9682,2.9694,2.9782,2.9841,2.9726,2.9732,3.0015,3.0021,3.0027,3.0117,0,0,0,0,0,0,2.9497,2.9517,2.9563,2.9585,2.9602,2.9725,2.9644,2.9642,2.9672,2.9663,2.9691,2.9692,2.968,2.9773,2.9788,2.9848,2.9737,3.001,3.0018,3.0025,3.0109,3.0126,3.014,0,0,0,0,0,2.9491,2.9586,2.9565,2.9582,2.9659,2.9729,2.9739,2.9723,2.9677,2.9721,2.9727,2.9691,2.9833,2.9783,2.9799,2.9862,3.0006,3.0016,3.0025,3.0102,3.0122,3.014,0,0,0,0,0,0,2.9571,2.9589,2.9566,2.9671,2.9699,2.9717,2.9774,2.9746,2.9788,2.9778,2.9757,2.9764,2.9857,2.9868,2.9812,2.9976,2.9912,2.9925,2.9964,2.9984,3.0,2.9994,2.9742,0,0,0,0,0,2.9601,2.9657,2.9669,2.9761,2.9776,2.9773,2.9803,2.9788,2.9816,2.9827,2.9839,2.9868,2.9918,2.9952,2.9999,3.0111,3.0114,3.0162,3.0177,3.019,3.0201,3.0258,3.0278,3.0061,3.0061,3.006,0,0,2.9664,2.968,2.9717,2.9777,2.9797,2.9854,2.9783,2.9847,2.9889,2.9837,2.992,2.993,2.996,3.0059,3.0104,3.0072,3.0262,3.0202,3.0212,3.0217,3.027,3.029,3.0309,3.0067,3.0066,3.0065,0,0,2.9806,2.9825,2.9902,2.9923,2.9953,2.995,2.9969,2.9991,2.9995,3.0078,3.0039,3.0089,3.0177,3.0199,3.0223,3.0371,3.0339,3.0387,3.0469,3.0524,3.0541,3.0556,3.0607,3.0625,3.0399,3.0399,3.0399,0,2.988,2.9965,2.9946,3.0012,3.0039,2.9993,3.007,3.0092,3.0136,3.0156,3.0119,3.0227,3.0245,3.0347,3.0383,3.0404,3.0423,3.0383,3.054,3.0555,3.0569,3.0617,3.0636,3.0405,3.0404,3.0403,3.0403,0,3.0053,3.0112,3.017,3.0213,3.0247,3.0318,3.0309,3.0345,3.0327,3.0328,3.0411,3.043,3.0479,3.0503,3.0487,3.0603,3.0581,3.0544,3.0478,3.0595,3.064,3.0658,3.0412,3.041,3.0409,3.0407,0,0,3.0248,3.0278,3.0299,3.0317,3.0346,3.0391,3.046,3.0507,3.0537,3.0569,3.0625,3.07,3.0664,3.069,3.0675,3.0725,3.0837,3.068,3.068,3.0706,3.0963,3.099,3.1012,3.0817,3.082,3.0823,3.0959,0,3.0389,3.0507,3.0491,3.0604,3.0657,3.0614,3.0674,3.0698,3.07,3.0744,3.0746,3.0798,3.0748,3.0763,3.081,3.0814,3.0888,3.0804,3.0867,3.0869,3.0858,3.1035,3.1065,3.1193,3.0977,3.098,3.0982,0,3.057,3.0606,3.0725,3.0743,3.0765,3.0818,3.0858,3.0903,3.0928,3.0926,3.0954,3.093,3.0997,3.0932,3.1023,3.0966,3.0991,3.0997,3.1001,3.1005,3.0932,3.1042,3.1233,3.1252,3.101,3.1008,3.1006,0,3.0697,3.0776,3.0856,3.0873,3.0898,3.0936,3.0948,3.0969,3.0998,3.1033,3.1051,3.1094,3.1118,3.1151,3.1139,3.1093,3.1232,3.1166,3.1231,3.1231,3.1261,3.1259,3.1457,3.128,3.128,3.128,3.1279,0,3.0855,3.0928,3.0913,3.0963,3.1043,3.1023,3.1103,3.111,3.1129,3.1178,3.1144,3.1191,3.1173,3.1218,3.121,3.1285,3.1297,3.1295,3.1292,3.1297,3.1297,3.1312,3.1302,3.1285,3.1284,3.1283,3.1282,0,3.101,3.1004,3.1088,3.1103,3.1108,3.1167,3.1179,3.1225,3.1224,3.1286,3.1299,3.1297,3.1348,3.134,3.1397,3.1391,3.1484,3.1471,3.1475,3.1471,3.1535,3.1528,3.1748,3.1775,3.1583,3.1585,3.1587,0,3.1111,3.1166,3.1186,3.1216,3.123,3.128,3.1308,3.129,3.1321,3.1353,3.1394,3.1442,3.1479,3.1563,3.1566,3.1609,3.1595,3.1669,3.1601,3.1604,3.1593,3.1589,3.1593,3.1682,3.1684,3.1686,3.1687,0,3.1289,3.1282,3.1324,3.1364,3.1398,3.143,3.1457,3.1484,3.1468,3.1504,3.1556,3.1585,3.1642,3.1689,3.1728,3.174,3.1711,3.1709,3.1725,3.1731,3.173,3.1728,3.1509,3.1703,3.1702,3.1701,3.17,3.1699,3.1418,3.1464,3.1484,3.1532,3.155,3.1576,3.1619,3.1622,3.1664,3.1709,3.1696,3.1754,3.1776,3.1825,3.1841,3.1885,3.1858,3.1883,3.1889,3.1894,3.1901,3.1724,3.1893,3.1892,3.1892,3.1892,3.1891,0,3.1592,3.1602,3.1646,3.1685,3.1721,3.1691,3.1719,3.1751,3.1802,3.1825,3.1862,3.1919,3.1964,3.1971,3.2013,3.2047,3.2034,3.2058,3.2055,3.2057,3.1924,3.1904,3.2068,3.2068,3.2068,3.2068,3.2067,3.2067,3.1686,3.1761,3.1757,3.184,3.185,3.1906,3.1924,3.1947,3.1965,3.2031,3.2067,3.2071,3.2086,3.2129,3.2169,3.2169,3.2185,3.2214,3.2209,3.2085,3.2067,3.205,3.2031,3.2218,3.2219,3.2338,3.2339,3.234]},{"header":{"parameterUnit":"m.s-1","parameterCategory":1,"la1":30.2991,"la2":30.254,"lo1":-89.0895,"lo2":-89.0444,"dy":0.0017,"dx":0.0017,"nx":28,"ny":28,"refTime":"2024-08-02T09:00:00:Z","depth":0,"parameterNumber":3,"parameterNumberName":"V-component_of_WINDS"},"data":[0,0,0,0,0,0,0,0,0,0,0,0,0,0,0,0,0,0,0,0,0,0,0,0,0,0,0,0,0,0,0,0,0,0,0,0,0,0,0,0,0,0,0,0,0,0,0,0,0,0,0,0,0,0,0,0,0,0,1.669,1.6691,0,1.6753,1.6753,1.6754,1.6755,1.6755,1.6754,1.6753,1.6815,1.6818,1.682,0,0,0,0,0,0,0,0,0,0,0,0,0,1.6569,1.6572,1.669,1.6691,1.6692,1.6752,1.6753,1.6754,1.6755,1.6754,1.6754,1.6753,1.6815,1.6817,1.682,0,0,0,0,0,0,0,0,0,0,0,0,0,1.6626,1.6572,1.669,1.67,1.6701,1.6752,1.6753,1.6754,1.6756,1.6754,1.6753,1.6752,1.6814,1.6817,1.6821,1.6866,0,0,1.6832,1.6833,0,0,0,0,0,0,0,0,1.6623,1.663,1.6697,1.6699,1.6701,1.6745,1.6734,1.6792,1.6756,1.6735,1.6753,1.6752,1.6793,1.6798,1.6812,1.6869,1.6871,1.6832,1.6834,1.6836,1.6837,0,0,0,0,0,0,0,1.6619,1.6628,1.6715,1.6698,1.6701,1.67,1.6707,1.6745,1.6769,1.6737,1.6737,1.6744,1.6793,1.6809,1.6814,1.6872,1.6832,1.6835,1.6837,1.6839,1.6967,1.6968,0,0,0,0,0,0,1.6613,1.6624,1.6713,1.6717,1.6658,1.6703,1.6711,1.6732,1.6769,1.6774,1.6745,1.6744,1.6803,1.6809,1.6816,1.687,1.6836,1.6839,1.6841,1.6965,1.6967,1.6968,0,0,0,0,0,0,1.6611,1.6621,1.671,1.6671,1.6682,1.6706,1.673,1.6734,1.6749,1.6776,1.678,1.6756,1.6803,1.6811,1.6853,1.6872,1.684,1.6844,1.6964,1.6966,1.6968,1.6979,0,0,0,0,0,0,1.6607,1.662,1.6638,1.6671,1.6684,1.6747,1.6732,1.6736,1.6755,1.6755,1.6787,1.6792,1.6802,1.6848,1.6856,1.6876,1.6846,1.6962,1.6965,1.6967,1.6977,1.6981,1.6984,0,0,0,0,0,1.6603,1.6639,1.6639,1.665,1.6707,1.6748,1.6756,1.6768,1.6757,1.6775,1.6792,1.6791,1.6869,1.6852,1.6862,1.6883,1.6961,1.6964,1.6967,1.6975,1.698,1.6984,0,0,0,0,0,0,1.6608,1.6644,1.6644,1.6692,1.6717,1.6749,1.6772,1.6773,1.6801,1.6799,1.6812,1.682,1.6861,1.6876,1.6857,1.6928,1.6913,1.6918,1.6916,1.6921,1.6925,1.692,1.6849,0,0,0,0,0,1.6615,1.6646,1.6675,1.6715,1.6727,1.6747,1.6766,1.6772,1.6799,1.6809,1.6829,1.6854,1.6884,1.6903,1.6933,1.6979,1.6985,1.6998,1.7002,1.7005,1.7009,1.7033,1.7039,1.6978,1.6978,1.6978,0,0,1.6629,1.6652,1.6671,1.6716,1.6736,1.6767,1.6756,1.679,1.6812,1.6814,1.6855,1.687,1.6899,1.6943,1.6963,1.6957,1.7027,1.7009,1.7011,1.7013,1.7036,1.7042,1.7047,1.698,1.6979,1.6979,0,0,1.6671,1.6692,1.6727,1.6747,1.6777,1.679,1.6798,1.6829,1.6839,1.6881,1.6882,1.6909,1.6961,1.698,1.6997,1.7044,1.7044,1.7053,1.7073,1.7096,1.7101,1.7105,1.712,1.7126,1.7057,1.7057,1.7057,0,1.6684,1.6732,1.6744,1.6777,1.6796,1.6799,1.6834,1.6852,1.6891,1.6903,1.6896,1.696,1.6979,1.7027,1.7038,1.7052,1.7061,1.705,1.7099,1.7103,1.7108,1.7123,1.7129,1.7058,1.7058,1.7058,1.7058,0,1.6746,1.6779,1.6803,1.684,1.6862,1.6895,1.6911,1.6932,1.6936,1.695,1.699,1.7014,1.7047,1.7059,1.7064,1.7107,1.7102,1.7096,1.7082,1.7114,1.7128,1.7134,1.706,1.7059,1.7059,1.7059,0,0,1.6794,1.6836,1.6845,1.6861,1.6894,1.6919,1.6952,1.6984,1.7001,1.7027,1.7054,1.7097,1.7091,1.711,1.7117,1.7138,1.7172,1.713,1.7131,1.7136,1.7219,1.7222,1.7229,1.7172,1.7173,1.7174,1.7216,0,1.6838,1.6898,1.6909,1.696,1.6989,1.6992,1.702,1.7043,1.7056,1.7081,1.7095,1.7125,1.7117,1.7128,1.7148,1.7163,1.7188,1.7161,1.7196,1.7197,1.7188,1.7236,1.724,1.7279,1.7222,1.7223,1.7224,0,1.6898,1.6925,1.698,1.7007,1.702,1.7045,1.7075,1.71,1.7126,1.7133,1.7154,1.7158,1.7191,1.7175,1.722,1.72,1.7215,1.7225,1.7226,1.723,1.7212,1.724,1.7292,1.7298,1.7233,1.7232,1.7231,0,1.6926,1.6976,1.7014,1.7028,1.7062,1.7079,1.7094,1.7118,1.7137,1.7162,1.7174,1.7203,1.7219,1.7241,1.7252,1.724,1.7295,1.7281,1.7302,1.7301,1.7313,1.7312,1.7367,1.7324,1.7324,1.7324,1.7323,0,1.6974,1.7007,1.7027,1.7051,1.7087,1.7099,1.7134,1.7148,1.7169,1.7194,1.7198,1.7222,1.7236,1.7261,1.727,1.7305,1.7312,1.7318,1.732,1.7318,1.7317,1.7327,1.7325,1.7325,1.7325,1.7324,1.7324,0,1.7011,1.7026,1.7068,1.7096,1.7104,1.7129,1.7153,1.7175,1.7187,1.7219,1.7227,1.7246,1.7276,1.729,1.7326,1.7332,1.7371,1.7372,1.7363,1.7364,1.7383,1.738,1.7446,1.7455,1.7407,1.7407,1.7407,0,1.7041,1.7066,1.7096,1.7114,1.7129,1.7157,1.7175,1.7187,1.7206,1.7236,1.7254,1.7284,1.7309,1.7356,1.7372,1.74,1.74,1.7421,1.7404,1.74,1.7399,1.7397,1.7399,1.7424,1.7425,1.7425,1.7425,0,1.7091,1.7097,1.7123,1.7152,1.7174,1.7198,1.7221,1.7234,1.725,1.7271,1.7301,1.732,1.7357,1.7386,1.7414,1.7428,1.7429,1.7431,1.7437,1.7434,1.7427,1.743,1.737,1.7429,1.7429,1.7428,1.7428,1.7428,1.7124,1.7146,1.717,1.72,1.7218,1.7239,1.7261,1.7275,1.7301,1.7333,1.7338,1.737,1.7393,1.7431,1.7446,1.747,1.7465,1.7474,1.7476,1.7478,1.7478,1.7424,1.7475,1.7475,1.7475,1.7475,1.7475,0,1.7174,1.7189,1.7216,1.7247,1.727,1.7269,1.7294,1.7312,1.7341,1.7362,1.7386,1.742,1.7448,1.7466,1.7494,1.7509,1.751,1.7516,1.7515,1.7518,1.7482,1.7474,1.7515,1.7515,1.7515,1.7515,1.7515,1.7515,1.7202,1.7238,1.7247,1.7291,1.7306,1.7338,1.7352,1.7371,1.7388,1.7426,1.7449,1.7461,1.748,1.7509,1.7534,1.7539,1.7548,1.7554,1.7558,1.7525,1.752,1.7516,1.7508,1.7556,1.7557,1.7592,1.7592,1.7592]}]]